Wind_Speed
14 15 16 16 17 18 18 19 18 14 14 14 12 11 11 13 12 9 6 5 5 6 7 7 7 6 6 5 5 5 5 6 6 6 7 7 7 7 7 7 7 7 7 7 6 6 6 5 5 5 5 5 5 5 5 5 6 6 7 8 8 8 8 8 7 7 7 8 9 9 10 11 11 12 12 12 13 13 14 14 15 15 15 16 16
10 11 12 14 15 17 19 19 17 15 15 15 13 12 13 15 15 12 8 7 6 6 7 7 7 6 6 5 5 4 4 5 5 5 5 5 5 5 5 5 5 5 5 4 4 4 3 3 3 2 2 2 2 1 1 2 3 4 5 6 6 7 7 8 8 8 8 9 10 11 11 12 13 13 14 14 14 15 15 16 16 17 17 17 18
7 9 10 13 15 17 18 18 17 16 16 16 14 13 14 16 16 14 10 9 8 7 8 8 7 7 6 6 5 5 4 4 4 4 4 3 3 3 3 3 3 3 4 4 3 3 3 2 2 2 1 0 1 1 1 1 1 2 3 4 4 6 7 8 9 9 9 10 10 11 12 13 13 14 15 15 15 15 16 16 17 17 17 18 18
6 8 10 12 14 16 18 18 18 17 17 18 15 14 15 17 17 16 13 12 11 9 9 9 9 8 7 6 6 5 5 5 4 3 2 1 1 0 1 1 1 1 2 2 2 3 3 3 3 2 2 2 2 2 3 3 3 2 1 1 2 3 6 8 9 10 10 10 11 11 12 13 13 14 15 15 16 16 16 16 16 16 16 16 17
5 6 9 11 13 15 16 17 18 18 18 19 17 16 16 16 17 18 16 14 13 11 11 11 10 10 8 7 6 6 6 5 4 3 2 2 2 2 3 2 2 2 1 1 1 2 3 4 4 4 3 3 2 2 3 3 3 3 2 2 2 1 3 5 7 8 9 10 11 12 12 13 14 14 14 15 15 16 16 17 17 17 17 17 17
3 4 6 9 11 13 15 16 17 17 17 18 18 19 20 17 17 17 16 16 15 13 13 13 12 11 10 10 9 8 7 7 6 6 5 5 4 4 5 5 5 5 4 3 3 3 4 5 5 6 6 5 4 4 4 4 4 4 4 4 4 4 3 4 5 6 9 11 12 13 13 13 14 15 15 15 15 15 16 17 18 18 19 19 20
2 3 4 6 8 10 12 13 14 15 15 15 17 21 21 19 18 17 17 18 17 15 16 16 15 14 14 13 13 12 11 10 10 9 8 7 7 7 7 7 8 8 7 7 6 5 6 7 8 9 9 9 8 6 6 5 5 6 6 6 6 6 6 5 5 6 9 12 13 13 13 14 14 15 15 16 16 16 17 17 18 19 20 21 22
1 2 3 5 7 8 9 10 11 12 13 13 15 19 21 20 19 19 19 20 19 17 17 17 17 16 16 16 16 15 15 14 13 12 10 10 9 9 10 10 11 11 11 11 10 9 8 8 10 12 12 12 12 12 10 8 8 8 8 8 9 9 9 8 7 8 10 11 12 13 13 14 15 15 16 17 17 18 19 19 20 22 22 23 24
2 2 2 2 5 7 8 9 10 11 12 14 16 17 18 19 20 20 20 21 20 19 18 18 18 17 17 17 17 17 16 17 16 14 13 13 13 13 14 14 14 14 14 15 15 14 13 12 12 14 14 14 16 16 13 11 11 10 10 10 11 11 12 11 10 11 11 11 12 13 14 14 16 16 17 18 19 20 21 22 22 23 24 24 25
2 2 2 2 3 5 7 8 9 10 10 13 16 17 18 19 20 22 22 22 21 20 19 19 19 19 18 18 17 17 18 19 19 17 17 18 19 18 17 17 17 17 17 17 17 17 16 15 15 16 17 16 16 17 16 14 12 10 11 12 12 12 13 12 13 13 12 12 13 14 14 15 16 17 18 19 20 21 23 24 24 25 26 26 27
1 1 0 1 2 3 4 7 9 11 11 12 14 16 18 20 21 23 24 24 23 23 22 21 21 20 20 19 18 16 17 19 19 19 19 21 22 21 20 19 18 18 17 17 17 16 16 17 18 19 19 18 17 16 15 14 12 11 13 14 13 14 14 14 14 14 13 13 14 14 14 16 17 18 19 20 22 23 25 26 27 27 28 29 29
1 1 1 2 3 3 4 6 8 10 12 13 14 14 16 18 21 23 25 25 24 23 22 22 22 23 23 24 25 23 21 20 19 20 21 21 20 18 17 17 15 14 14 13 13 13 15 16 17 18 19 18 17 16 15 14 13 13 15 16 15 15 16 16 15 14 14 15 15 15 16 16 17 18 20 21 23 25 26 28 28 29 30 30 31
3 2 2 3 4 6 7 8 8 9 11 13 15 15 16 17 19 21 23 24 23 21 23 24 25 26 25 23 25 27 24 19 18 19 19 18 16 14 13 13 12 12 12 12 11 12 12 14 14 15 16 17 18 17 15 14 14 15 17 17 17 17 17 17 16 15 15 15 15 16 17 17 18 20 22 23 25 27 28 28 29 30 31 31 32
4 3 2 2 3 5 6 7 9 10 12 13 15 16 18 19 19 20 22 21 18 17 20 22 21 22 21 17 16 19 19 16 14 15 15 13 12 11 11 11 10 10 10 10 10 11 12 13 15 15 17 18 19 17 14 13 14 16 18 19 19 18 18 17 17 16 15 16 16 17 17 18 19 22 24 26 27 29 29 29 30 31 32 33 34
5 4 3 3 2 3 3 3 5 7 10 12 14 15 17 17 17 18 19 16 11 10 14 14 12 12 13 12 11 12 14 14 13 13 12 11 10 10 9 9 9 9 9 9 9 9 10 12 14 16 17 17 17 17 14 12 12 16 18 19 19 19 18 17 17 16 16 17 17 18 19 20 21 24 26 28 29 30 31 31 32 33 35 35 36
6 5 5 5 4 4 4 4 4 4 6 8 11 13 14 14 13 13 11 10 9 10 11 11 11 11 10 10 10 11 11 11 11 10 10 9 9 9 8 8 7 7 7 7 6 7 8 9 10 12 13 14 15 15 14 10 10 14 18 19 19 18 18 17 17 17 17 18 19 20 21 23 25 27 29 30 31 32 32 33 33 34 34 35 35
8 8 8 8 7 6 5 5 4 3 5 6 7 9 10 10 9 8 8 8 10 11 10 10 11 11 10 11 10 10 9 10 10 10 10 9 9 8 8 7 7 6 6 5 5 6 6 7 8 9 10 11 12 12 11 9 10 14 17 18 18 18 18 18 18 17 17 18 20 22 24 26 27 29 30 31 31 32 32 32 31 31 32 32 31
11 11 11 10 9 7 6 6 4 2 2 5 7 8 8 8 8 8 8 9 10 11 10 10 11 11 11 11 10 9 10 10 10 10 10 10 10 9 8 8 8 7 6 5 5 5 4 5 5 6 6 7 8 8 7 8 11 15 17 18 18 18 18 18 17 17 18 20 22 24 26 27 28 29 30 30 31 31 31 31 30 30 31 30 29
13 13 13 13 12 11 11 11 8 6 4 5 5 6 7 8 9 9 10 10 11 12 11 10 11 12 12 11 11 10 10 10 10 11 11 11 11 10 9 9 8 7 6 5 5 4 4 4 3 2 3 3 3 4 5 8 12 15 17 18 17 17 17 17 17 19 20 22 24 25 27 28 29 29 30 30 30 29 29 29 29 29 29 29 29
15 15 16 17 16 16 16 16 14 13 12 9 6 6 7 9 10 11 12 12 12 12 12 12 11 11 10 10 9 9 9 9 9 9 9 10 10 10 9 9 8 7 6 6 6 6 6 5 4 4 4 3 2 3 6 10 14 16 16 16 16 16 16 17 18 20 22 23 25 26 27 28 28 29 29 29 29 28 28 28 27 27 27 28 28
18 17 18 19 18 17 17 17 17 17 17 14 10 9 11 12 13 14 14 13 13 13 14 13 12 11 10 9 8 7 6 5 6 6 6 7 8 8 9 9 9 9 8 7 7 7 6 5 4 4 4 3 3 5 8 11 13 14 14 14 14 15 17 18 20 22 23 25 25 26 27 28 28 28 28 28 27 27 27 27 26 26 26 26 24
22 21 20 20 20 19 19 18 18 17 17 16 15 15 16 16 15 16 16 15 15 15 15 15 14 12 11 9 7 6 5 6 6 7 8 8 9 10 11 11 11 10 10 8 7 6 5 4 3 4 4 4 5 7 9 11 13 13 13 14 15 16 18 20 22 23 24 25 26 26 27 27 27 27 26 26 26 26 26 26 26 25 25 24 22
25 25 25 24 23 22 20 20 20 19 17 17 17 18 20 21 20 20 20 18 17 17 17 16 15 14 13 12 11 10 9 9 9 10 10 10 11 10 11 11 11 11 10 9 7 6 5 4 4 4 5 6 7 8 10 12 13 14 14 15 17 18 20 21 22 23 24 25 25 25 25 25 25 25 25 26 26 26 26 26 25 25 25 24 24
27 27 27 27 26 25 23 22 22 22 21 20 19 18 19 22 24 24 23 21 20 19 18 17 16 15 14 13 12 11 11 11 10 10 10 10 9 8 8 9 10 10 10 9 8 6 6 5 5 5 6 7 8 9 11 12 13 15 16 17 18 19 20 21 22 23 23 24 24 24 24 25 25 26 26 26 26 26 26 26 25 24 24 24 24
30 29 29 29 28 28 27 25 24 24 23 23 22 21 20 21 23 23 23 22 21 20 19 17 16 14 12 11 10 9 9 10 10 9 9 9 8 7 6 7 9 9 9 8 7 6 6 6 6 6 6 7 8 10 12 13 14 15 16 16 17 18 19 20 21 21 21 22 23 24 25 25 26 26 27 26 26 26 25 26 25 24 24 25 24
33 32 31 30 30 29 29 29 27 25 24 24 24 24 22 20 19 20 21 21 21 20 19 17 15 12 11 9 8 9 9 10 10 9 9 9 8 7 7 7 9 9 8 7 7 6 6 6 6 7 8 9 10 12 13 13 13 14 14 16 17 18 18 18 19 19 20 21 23 25 26 27 28 27 27 27 26 25 24 25 24 24 23 23 22
34 34 34 33 32 31 30 29 28 27 26 24 24 26 26 24 23 23 23 23 23 23 21 19 18 18 16 14 12 12 13 13 12 11 10 9 8 8 8 8 8 8 8 8 8 6 6 6 7 8 10 11 11 11 11 11 12 13 14 15 16 16 16 16 17 18 20 22 24 26 26 25 25 26 26 26 25 24 23 22 22 22 21 20 19
34 35 35 35 34 33 32 31 29 28 27 24 24 26 29 30 31 30 27 26 27 26 25 25 23 18 16 16 15 14 15 15 14 12 11 10 9 9 9 9 9 8 8 8 8 7 7 8 9 9 9 9 8 8 9 10 11 13 13 14 14 14 14 15 17 19 21 23 25 26 24 21 20 21 20 20 20 21 21 21 20 19 18 17 18
33 35 36 36 36 35 34 33 31 29 28 26 24 25 28 31 33 32 29 28 29 27 26 26 23 18 17 18 16 15 14 13 12 11 10 9 9 9 9 10 9 8 8 8 8 8 8 9 9 8 7 7 6 7 8 10 11 12 11 11 11 12 13 16 18 20 23 24 26 27 25 21 20 19 17 16 18 20 21 21 21 19 18 17 18
30 33 35 36 38 37 36 35 33 31 30 28 26 26 27 29 32 32 31 32 33 32 31 29 24 20 21 20 17 14 13 11 10 9 8 7 8 9 10 9 8 8 8 9 9 8 8 8 7 6 6 5 6 7 8 9 9 9 9 9 10 11 14 16 19 21 23 25 25 26 25 23 22 21 19 20 21 21 22 22 20 17 16 17 18
28 30 32 35 37 38 38 37 35 33 32 30 28 26 26 27 29 31 33 36 38 37 33 27 20 18 20 19 17 15 13 10 9 8 7 7 8 9 9 9 8 8 8 8 9 9 8 7 6 5 4 5 6 7 8 8 7 7 7 7 9 12 15 18 20 22 24 25 25 25 22 19 20 21 21 23 24 23 22 21 18 17 18 18 20
29 29 30 32 35 37 39 39 37 34 31 30 28 26 25 25 25 25 28 33 37 35 30 24 21 20 19 18 16 14 11 9 9 8 8 8 8 9 9 9 8 8 8 8 8 8 7 6 5 4 4 5 6 6 6 6 5 4 5 7 10 13 16 18 20 22 24 24 25 23 20 17 18 21 23 23 23 22 22 21 19 20 22 23 23
30 31 30 30 31 34 36 39 38 35 32 29 27 25 25 25 25 25 26 27 29 30 29 26 23 21 20 18 16 13 11 9 9 9 8 8 9 10 10 9 8 8 8 8 8 7 6 5 3 3 4 5 5 5 4 3 3 4 5 8 11 13 16 18 20 22 24 25 24 21 19 18 20 22 22 22 21 20 20 21 21 21 23 24 25
30 31 31 29 29 30 32 35 38 37 32 28 26 25 25 25 24 26 29 29 25 23 22 23 22 20 20 19 17 14 12 10 9 9 8 9 11 12 12 11 10 10 9 8 8 6 4 3 3 3 4 4 4 4 3 2 3 4 6 9 11 13 16 18 21 23 24 24 23 20 19 20 20 20 20 20 20 19 19 20 21 22 24 25 25
29 30 30 28 27 28 29 31 36 38 34 28 26 26 26 24 21 20 22 23 22 19 17 18 20 20 20 20 18 15 13 11 10 8 8 10 13 14 13 12 12 11 10 9 7 5 3 2 3 3 4 4 4 3 2 1 2 4 7 9 12 14 16 19 21 23 24 24 23 21 20 20 18 17 17 19 20 20 20 20 21 22 23 24 24
27 29 29 28 26 26 27 28 32 37 35 29 25 24 25 25 23 20 17 14 14 16 17 18 21 23 22 21 18 16 14 13 11 9 9 11 14 13 12 12 11 10 9 8 6 4 3 3 4 4 5 4 4 3 1 1 3 5 7 10 12 14 17 20 22 23 23 23 22 22 22 20 17 17 18 19 19 19 20 20 20 21 21 22 23
26 26 27 27 25 24 24 25 29 35 34 28 23 22 23 24 25 23 20 16 14 15 15 13 14 19 22 22 19 18 16 14 12 12 12 13 13 12 10 10 10 10 8 6 4 3 4 5 5 5 5 5 3 2 0 2 4 6 8 10 12 14 17 19 21 22 23 22 22 22 22 21 19 19 19 19 19 19 19 19 20 21 21 22 23
22 22 22 23 22 20 20 21 26 32 32 27 22 20 21 23 25 25 24 21 19 19 17 14 14 17 20 21 21 21 20 18 17 16 16 16 16 14 13 12 10 9 7 5 5 5 5 6 6 6 5 4 2 1 1 2 4 7 9 10 12 14 17 19 21 22 22 21 21 22 22 22 20 19 19 18 18 19 19 19 20 21 22 22 23
12 13 14 15 16 16 16 17 23 30 31 26 21 18 18 20 23 24 23 22 21 20 20 19 19 20 22 25 26 25 23 21 20 20 20 20 19 18 16 13 10 8 7 6 5 5 5 5 5 4 3 2 2 1 1 3 5 8 9 11 13 15 17 19 21 21 21 21 21 22 23 23 22 21 21 19 18 18 19 19 19 21 22 22 22
9 5 5 8 11 12 12 14 20 28 29 24 18 16 16 17 20 23 23 23 23 22 21 21 20 20 23 27 29 27 23 21 21 22 22 22 21 18 15 12 9 8 7 6 5 4 3 2 2 2 1 1 1 1 1 4 6 8 10 11 12 14 16 18 20 20 20 21 21 22 23 24 23 23 23 20 18 17 18 19 20 21 21 22 22
9 5 2 2 6 8 9 11 18 25 27 21 15 14 15 14 17 21 23 22 21 20 19 19 18 17 18 20 21 19 17 19 22 23 22 21 19 16 14 12 10 8 6 5 3 2 1 0 0 1 1 2 1 0 2 5 7 8 10 11 11 13 15 17 19 19 20 20 21 23 24 25 24 25 25 23 20 18 18 19 21 21 21 21 20
9 5 3 0 3 5 6 11 17 22 22 17 13 14 14 11 10 15 18 17 16 17 18 19 19 18 18 19 17 15 16 19 20 21 20 18 16 15 14 13 10 7 5 4 2 2 2 1 1 2 2 2 1 1 3 5 7 9 10 10 10 12 14 17 18 19 20 21 22 23 25 25 25 26 26 25 22 20 19 20 21 21 21 20 20
14 10 6 3 4 6 8 12 16 17 16 14 14 15 13 8 7 12 14 12 9 9 12 17 20 23 24 22 20 19 19 20 20 19 18 17 16 15 14 12 9 6 5 3 1 2 2 1 1 2 3 2 1 2 4 6 8 9 10 10 10 11 13 16 18 19 20 22 23 24 25 26 26 26 27 26 24 22 20 20 21 21 21 21 20
15 13 11 7 7 9 11 13 15 15 15 15 15 13 10 6 6 9 9 8 5 4 5 8 12 18 23 24 22 21 22 21 19 19 18 18 17 15 13 10 8 5 4 2 1 1 1 1 1 2 2 2 1 3 5 7 8 10 10 10 10 11 13 15 17 19 20 22 23 25 26 26 26 26 27 27 26 24 22 20 20 21 21 21 20
14 13 11 10 8 10 12 13 14 14 14 14 14 12 10 7 6 7 7 7 5 5 5 5 7 13 20 23 23 23 22 19 18 18 18 17 16 13 10 8 7 5 3 1 0 1 1 0 2 2 2 1 2 4 5 7 9 10 10 10 10 11 12 14 16 18 20 22 23 25 26 26 26 26 27 27 27 26 22 20 20 21 21 20 19
15 13 12 11 10 10 11 12 12 13 13 13 13 13 12 10 7 6 6 5 5 4 5 8 11 16 21 23 23 22 20 18 17 18 18 16 12 9 8 7 7 5 3 2 1 1 1 1 2 2 2 2 2 4 5 7 9 10 11 11 11 11 12 14 15 17 19 21 23 25 26 26 26 26 27 27 27 26 23 20 19 20 20 19 18
18 16 14 12 12 11 11 10 10 10 11 12 13 13 12 10 8 6 5 5 5 6 9 13 18 21 22 22 21 20 19 18 17 17 15 13 9 7 7 7 6 4 3 2 1 1 1 2 3 2 2 2 2 3 5 7 9 10 11 12 12 11 12 13 15 16 18 20 22 24 25 25 25 25 26 26 27 26 24 21 20 20 20 18 17
23 22 20 17 15 14 12 10 9 8 9 10 11 11 10 9 8 7 7 8 11 14 17 21 22 22 20 20 19 18 17 16 15 13 12 10 9 8 7 6 5 4 4 3 2 1 2 3 3 2 1 1 1 4 6 7 8 9 11 12 13 13 13 13 14 16 17 19 21 22 23 23 24 24 25 25 26 26 25 22 20 19 19 17 15
27 26 25 23 22 19 17 15 13 12 11 11 12 13 13 12 12 13 15 17 19 21 22 22 21 19 18 17 16 15 13 12 12 11 11 10 9 9 7 6 5 5 4 3 3 3 3 3 2 1 1 0 1 4 5 7 8 9 11 12 14 14 14 13 13 15 16 18 20 21 22 22 23 23 24 24 24 25 24 23 20 19 18 16 15
25 25 25 25 24 23 21 20 19 18 17 18 19 19 20 20 20 20 21 21 21 20 19 18 17 17 15 14 12 12 11 11 11 11 11 10 9 8 6 6 6 6 5 4 3 3 3 3 2 2 1 1 2 3 5 6 7 9 10 12 14 15 15 13 13 13 15 16 18 20 20 21 21 21 22 23 23 24 24 23 21 19 17 15 14
20 20 21 22 22 22 21 21 20 19 19 19 20 20 21 20 20 19 19 18 17 16 15 15 15 13 11 10 10 10 10 10 10 10 10 10 8 7 7 7 7 7 6 4 3 3 4 3 3 2 1 1 2 3 5 6 6 8 10 11 13 14 15 14 13 12 13 15 17 18 19 19 19 20 21 22 22 23 23 22 21 19 17 15 13
Wind_Direction
236 239 241 244 250 248 242 240 241 239 231 223 217 213 206 193 187 183 175 174 171 161 153 146 144 143 142 140 131 122 113 104 101 97 95 97 99 97 94 91 87 84 82 80 80 86 89 93 104 111 112 111 106 101 98 92 87 82 77 73 68 65 59 51 47 41 29 20 14 11 10 8 6 4 3 2 1 359 357 353 349 346 342 338 335
230 233 232 235 242 241 238 243 248 244 233 224 219 216 208 200 199 197 189 190 191 181 170 159 154 150 146 147 145 138 129 117 112 106 96 90 85 83 79 74 69 65 62 61 59 62 68 72 83 100 114 118 110 108 96 78 75 70 66 66 62 52 43 34 27 20 12 7 4 1 1 0 357 355 355 356 357 356 354 352 348 347 344 341 338
222 223 226 231 236 238 239 243 245 244 238 225 219 220 212 202 203 206 204 208 209 201 190 182 176 170 163 163 161 154 147 136 129 124 114 107 96 84 79 69 60 51 42 37 32 28 31 35 38 46 38 1 296 280 287 309 344 38 51 61 57 42 35 28 20 11 1 355 354 352 350 348 346 346 346 347 349 350 349 348 346 344 341 338 336
199 207 217 226 235 238 240 242 242 244 239 226 218 221 213 203 205 209 211 214 217 214 205 200 198 190 182 177 175 173 168 159 152 145 132 128 146 179 174 153 120 75 42 23 13 0 351 345 344 352 351 341 320 292 282 284 285 296 346 43 39 34 35 26 13 5 356 347 344 341 339 339 338 338 338 337 338 340 341 341 340 338 335 333 331
184 199 211 220 229 235 239 241 242 243 238 230 227 223 213 206 209 212 213 213 217 221 216 211 209 204 201 199 196 196 192 186 183 181 191 225 251 266 260 244 231 217 217 264 322 325 322 320 315 312 312 310 302 284 275 273 272 268 258 252 271 318 10 8 356 352 350 341 333 330 330 331 330 329 329 330 330 331 332 332 330 328 326 325 325
175 192 211 221 226 230 235 238 238 236 234 234 233 223 214 212 214 217 218 214 216 223 223 219 218 215 215 213 210 214 217 217 215 214 219 229 242 260 264 258 252 242 234 235 249 273 284 288 288 289 292 288 278 269 268 268 269 269 260 252 258 274 303 329 332 338 341 332 324 322 322 323 323 322 323 324 324 325 325 324 323 323 322 322 321
173 199 218 227 228 230 231 231 230 230 229 230 224 216 213 215 219 224 224 217 216 222 226 227 227 223 222 221 219 222 225 227 229 231 234 237 241 251 259 263 262 257 253 252 249 252 265 273 272 268 267 265 260 252 248 250 259 266 264 264 269 279 293 305 308 322 329 323 317 316 316 316 317 318 320 322 322 323 322 321 321 321 321 321 320
135 192 207 219 227 232 233 231 228 225 222 219 214 213 215 217 221 228 229 222 219 222 226 230 230 229 228 226 224 225 228 233 237 239 245 252 253 257 262 264 264 261 259 258 256 253 258 269 274 275 272 266 263 258 252 247 249 255 262 267 271 277 283 289 292 301 310 311 311 313 313 313 315 318 320 323 324 324 322 321 320 319 319 320 320
79 89 120 184 212 224 234 236 234 230 225 222 219 217 219 221 223 229 232 229 227 230 234 236 235 236 235 231 231 233 234 235 238 244 253 258 258 260 263 264 263 263 261 259 258 255 255 260 269 278 280 274 268 266 266 263 256 256 262 265 268 274 278 282 288 294 300 305 308 310 312 315 317 321 323 323 322 321 320 320 320 319 318 319 319
62 66 85 125 185 209 227 234 239 242 237 232 229 226 227 229 229 231 234 235 236 240 244 244 243 243 241 239 243 249 251 248 246 251 259 263 262 260 261 262 262 264 265 264 262 259 258 259 264 272 277 275 269 266 267 266 262 259 261 264 271 276 279 284 290 293 295 301 305 306 311 316 318 321 322 320 319 320 321 321 322 322 321 320 320
50 52 86 224 204 202 223 235 242 248 247 242 236 233 234 236 235 235 236 238 241 245 249 250 250 249 245 242 246 256 267 262 252 250 258 265 265 259 257 261 266 268 268 267 265 263 262 263 265 268 269 269 267 264 261 261 262 258 255 262 274 280 283 286 286 287 292 300 304 307 312 316 318 320 321 320 320 320 322 323 324 324 325 324 323
3 326 282 264 254 241 238 241 245 248 249 246 242 239 240 240 240 239 240 241 242 246 252 253 253 255 255 252 252 258 268 268 258 255 258 260 257 254 255 260 265 267 267 267 267 265 264 264 264 264 263 262 264 263 256 251 251 250 251 261 274 279 280 280 280 286 295 302 307 311 313 316 317 319 320 321 321 321 322 323 323 324 324 323 322
0 349 322 277 260 253 249 248 247 246 246 245 245 246 247 247 248 247 247 248 248 249 253 255 257 260 259 256 253 253 255 257 256 253 250 247 245 245 249 255 259 263 266 269 269 266 264 263 261 260 262 262 264 265 258 244 241 246 252 260 269 272 273 275 281 288 296 303 310 312 313 316 317 318 320 320 320 320 321 321 321 321 320 319 318
340 336 324 282 258 255 255 255 256 254 251 248 248 249 251 253 254 253 252 256 259 253 248 250 254 254 248 242 241 238 236 235 234 232 230 228 230 233 240 249 259 266 269 270 270 266 262 259 257 256 258 259 260 262 260 247 238 243 251 257 263 267 269 275 283 290 297 306 311 310 311 315 316 316 318 319 319 320 319 319 318 318 316 316 315
326 319 312 299 292 292 284 273 268 265 261 257 254 254 254 253 252 250 250 252 247 227 222 226 226 221 218 217 215 214 216 214 210 210 213 216 223 232 242 251 258 263 267 268 270 268 263 259 258 256 256 258 258 258 257 251 240 239 247 255 260 264 269 277 286 295 303 308 309 310 312 315 317 317 318 318 318 318 317 317 317 316 316 316 316
315 310 305 296 291 301 308 302 294 285 275 264 257 254 254 253 249 243 237 228 211 198 198 199 197 194 192 190 190 193 196 195 194 202 213 221 233 241 245 248 252 256 261 262 262 262 260 257 256 255 255 257 256 253 252 252 245 244 249 255 259 264 272 282 290 298 304 307 309 312 315 317 318 317 317 316 315 316 316 316 317 316 315 315 315
294 293 295 292 285 284 284 278 277 284 282 273 264 259 257 254 248 238 224 209 201 200 197 190 188 188 186 185 188 193 196 198 203 212 217 222 230 234 235 239 243 245 247 252 256 257 257 256 254 253 252 250 248 245 244 245 247 248 252 256 261 268 277 286 293 298 301 304 308 311 313 315 315 314 313 313 313 314 315 315 315 314 312 312 311
291 287 286 286 282 273 260 247 235 233 271 269 260 257 256 251 243 233 221 210 203 201 201 196 189 187 189 193 200 206 209 213 215 216 215 216 218 222 227 229 231 234 238 245 254 257 259 259 253 245 243 241 234 230 231 237 243 247 252 257 264 272 282 290 295 298 301 304 307 310 312 312 312 311 311 311 311 312 312 311 311 311 310 310 308
287 282 280 279 276 270 267 264 255 244 261 273 258 250 248 236 222 211 204 204 205 203 201 201 198 197 199 204 212 218 220 222 221 218 218 216 216 220 226 227 227 231 236 248 265 284 295 295 286 271 266 256 235 228 232 234 239 246 253 261 270 281 289 295 297 299 301 304 307 309 310 309 309 309 309 309 310 310 310 309 309 308 307 306 305
281 277 275 274 273 273 274 274 270 263 262 266 262 254 246 229 217 211 205 204 207 206 202 203 205 206 206 206 210 216 217 219 221 223 224 226 227 227 228 232 238 242 249 263 277 291 301 305 308 314 314 304 279 260 250 243 244 251 260 271 282 289 293 295 297 299 302 304 306 307 308 308 308 308 309 310 310 309 309 308 307 305 304 303 302
278 273 270 268 269 269 268 270 271 265 257 251 244 244 244 234 223 218 214 209 209 209 205 203 203 202 203 204 206 210 216 224 232 238 243 247 250 248 244 245 249 250 253 259 267 276 287 297 304 308 306 288 262 262 261 258 260 266 274 282 287 290 293 296 299 301 303 305 306 307 308 309 309 310 311 311 310 309 308 306 304 303 300 298 296
277 273 269 265 265 263 260 259 259 256 251 245 238 235 239 238 229 219 214 211 207 204 201 201 203 206 211 220 227 234 247 260 267 270 270 268 267 265 261 257 254 251 249 246 245 252 262 271 277 275 270 266 266 269 270 273 276 279 282 285 288 292 297 299 302 304 306 307 308 309 310 311 312 312 312 311 311 310 308 306 304 301 298 295 292
275 272 269 264 262 260 256 252 249 246 245 243 239 235 236 239 234 223 215 211 208 206 205 206 211 217 223 233 241 248 257 265 270 273 274 272 268 263 258 252 246 242 239 234 230 231 236 243 252 257 260 265 271 275 276 277 278 278 281 286 291 297 300 302 304 306 307 309 311 313 315 315 315 315 314 313 312 311 309 307 305 303 301 298 295
270 268 266 264 260 257 254 250 246 245 244 244 241 235 231 231 228 221 217 216 213 210 209 210 215 219 223 231 241 250 259 267 273 277 276 272 268 261 252 244 236 232 230 229 227 230 236 241 249 259 266 268 271 274 277 277 277 280 285 291 297 301 303 305 307 310 312 315 317 318 319 319 318 318 316 315 315 314 312 311 310 309 306 303 300
268 264 262 261 259 257 254 250 246 245 245 245 241 233 226 226 225 220 216 215 213 211 209 206 208 211 215 224 238 252 263 270 273 276 275 270 265 262 253 240 232 230 231 229 231 238 241 243 249 259 266 270 271 271 272 275 279 285 292 298 301 304 307 310 314 317 319 322 323 323 322 321 321 320 319 318 318 318 317 316 316 315 314 311 309
268 265 262 259 257 257 255 252 249 246 245 244 241 232 223 220 223 221 216 212 208 204 199 197 201 210 217 226 243 257 267 272 272 268 266 264 262 262 257 242 231 228 225 223 228 240 246 249 256 260 261 261 263 266 271 279 287 294 298 302 306 310 315 319 322 325 327 328 328 327 324 323 324 324 323 323 324 324 324 322 321 321 321 319 315
267 266 264 261 257 254 254 253 251 248 245 243 240 233 225 222 227 230 228 223 214 205 206 217 228 232 233 236 248 261 267 269 267 262 258 260 261 259 251 241 231 226 221 218 225 240 253 254 251 252 255 258 262 269 278 287 294 299 304 309 315 319 323 326 329 331 332 332 331 330 327 326 326 326 326 327 328 329 328 325 323 323 323 320 316
265 264 263 261 258 255 252 251 250 249 247 243 239 234 229 230 237 240 237 232 226 222 223 226 226 228 237 242 243 248 253 254 255 255 254 255 257 254 246 239 234 228 221 217 222 237 246 244 242 244 249 256 264 274 285 293 299 307 314 319 323 326 329 333 335 336 335 335 334 332 330 327 325 325 324 324 325 326 326 323 321 321 320 317 315
263 260 259 258 257 255 253 249 247 246 246 244 242 239 233 232 237 239 234 229 229 232 233 229 225 231 244 246 239 235 237 238 241 245 247 248 249 244 236 233 233 230 222 216 222 234 236 234 236 239 242 251 265 281 294 304 311 317 322 325 328 333 337 339 340 340 339 337 335 333 331 328 327 326 322 319 320 322 323 323 323 322 319 316 313
264 259 255 254 253 253 252 250 246 244 243 242 242 243 240 235 233 234 232 229 232 239 244 245 242 234 229 228 226 223 225 229 232 236 240 242 244 241 234 230 228 225 221 219 221 226 226 224 225 228 236 257 279 294 306 315 319 321 324 327 333 338 341 343 343 342 340 338 336 334 332 330 329 328 325 324 325 324 323 324 324 321 316 313 311
275 265 258 253 250 248 248 248 246 243 242 241 239 240 243 242 237 233 231 230 233 239 242 238 227 212 210 217 219 215 215 222 228 234 239 240 242 242 235 228 223 218 217 218 216 213 210 209 215 225 245 276 294 304 312 316 315 316 323 332 338 343 346 346 344 342 341 339 337 335 332 329 328 329 328 327 326 326 326 326 322 317 314 313 312
282 277 267 259 253 247 243 243 244 243 241 240 239 236 236 240 240 237 234 232 233 235 232 220 207 200 202 210 216 215 215 219 220 225 233 236 238 236 227 218 213 208 205 202 201 200 200 202 214 241 270 289 301 306 306 303 302 308 326 341 347 349 348 345 343 343 342 340 338 335 331 328 327 326 325 325 325 326 326 325 321 319 319 319 318
280 280 275 267 259 252 244 239 238 240 240 239 237 232 231 237 241 242 242 238 229 221 213 205 201 198 197 201 208 211 212 212 212 217 225 229 229 225 215 204 198 194 193 193 192 193 199 210 234 271 286 291 294 291 285 284 297 320 340 351 353 349 345 343 344 344 343 342 341 338 332 326 323 322 322 324 326 326 324 323 322 321 321 321 320
275 277 277 273 264 257 250 240 234 234 237 238 235 229 228 233 238 238 240 239 232 221 209 199 196 198 200 201 203 204 205 209 210 213 222 226 222 217 207 195 187 182 182 188 194 198 209 235 266 279 279 277 272 264 261 279 314 340 355 358 352 346 343 344 345 345 343 342 341 337 332 327 324 321 320 323 326 326 324 322 322 322 321 320 319
273 272 274 275 268 258 251 242 233 230 232 235 233 229 226 227 229 229 231 235 239 239 230 215 211 212 209 204 204 204 205 207 207 208 218 221 214 206 197 188 183 183 184 190 200 211 225 251 265 263 259 256 247 236 241 294 342 359 1 356 348 345 345 347 346 345 343 341 338 336 334 332 327 321 320 324 329 329 327 324 322 321 321 320 319
277 271 269 270 267 258 250 243 231 226 226 229 230 228 226 225 224 222 221 223 222 221 220 222 223 218 207 199 201 204 202 203 205 204 209 210 205 198 190 182 181 186 191 197 208 222 235 246 250 244 238 231 222 213 225 347 9 6 358 352 348 347 348 348 346 344 341 339 337 338 338 335 330 327 328 330 331 330 327 324 322 321 321 321 320
277 271 266 264 263 258 252 243 230 222 220 222 224 225 225 224 223 222 222 222 219 216 216 221 225 216 203 194 194 197 197 197 195 191 191 193 191 185 181 181 183 188 193 199 210 226 237 238 233 226 219 212 203 193 135 22 11 2 356 352 349 348 347 346 344 342 340 339 340 342 342 339 336 335 334 333 331 330 328 326 325 325 326 324 322
278 270 265 261 257 253 251 243 228 217 213 213 215 219 222 222 221 220 221 223 226 227 227 228 229 225 215 203 197 196 191 185 182 182 183 182 178 173 173 177 182 185 189 199 212 223 228 224 218 214 210 199 180 152 64 25 8 360 357 354 351 349 347 345 343 341 341 343 345 346 346 343 341 340 339 336 334 332 330 329 330 329 328 326 323
295 275 267 260 249 242 244 242 226 213 207 204 206 213 219 220 218 217 215 214 217 222 228 230 230 227 222 213 204 197 191 188 188 189 185 178 172 170 172 175 176 177 183 196 206 211 214 213 211 211 205 178 139 109 50 17 5 0 358 355 351 349 345 343 343 343 343 345 347 347 347 348 348 348 346 342 337 335 333 332 332 331 328 325 321
350 324 279 255 236 229 234 235 221 209 202 198 200 212 222 222 217 212 209 208 211 218 225 230 232 233 230 218 204 192 190 194 197 193 184 174 168 168 170 169 169 172 178 186 188 186 191 202 209 208 184 139 119 108 34 12 5 1 357 353 349 346 343 342 343 344 345 348 348 347 349 352 353 352 351 348 343 341 339 337 336 334 330 325 322
8 17 359 241 218 220 228 225 212 203 196 192 196 211 220 223 220 213 210 211 215 218 223 227 230 231 225 212 199 194 200 204 195 183 174 168 166 166 163 160 161 167 170 169 160 133 91 97 162 157 143 138 142 91 19 11 5 0 355 350 346 343 342 343 344 345 347 349 349 348 350 353 354 354 354 352 349 348 346 343 339 335 331 327 326
15 23 21 178 195 204 205 197 192 189 187 186 196 208 216 221 212 201 200 206 211 212 215 218 214 203 192 190 193 203 208 197 180 166 161 161 160 158 157 158 159 159 158 156 135 72 45 59 110 135 149 160 160 44 16 9 3 358 352 346 343 343 343 344 346 347 349 351 351 350 351 353 355 355 355 353 351 349 349 345 341 338 334 332 331
40 41 45 84 139 142 143 155 166 172 176 185 198 207 211 206 178 172 182 195 208 217 224 224 213 198 188 185 186 186 182 173 163 157 156 155 153 154 158 161 160 156 156 155 120 51 37 53 114 139 157 168 151 40 20 9 2 356 348 343 342 345 345 346 347 350 352 352 352 352 353 354 355 356 356 354 351 349 349 347 344 340 338 335 333
44 46 51 74 122 138 138 144 156 166 176 188 202 211 211 193 161 162 177 191 199 202 221 232 218 199 188 180 173 167 163 159 157 156 153 151 154 159 163 162 159 161 166 156 96 34 12 44 133 155 167 166 99 42 22 9 360 352 345 342 345 347 347 347 350 352 353 353 353 353 355 355 355 356 356 355 352 350 351 351 347 343 341 338 335
51 58 63 74 108 142 156 162 170 178 187 195 205 213 216 207 187 176 182 194 198 185 177 183 191 187 179 169 160 156 155 155 155 155 154 156 161 165 166 166 170 177 182 172 110 353 357 82 158 173 171 129 70 39 18 5 356 348 343 345 349 349 347 349 352 353 353 353 353 354 355 356 355 356 357 356 354 353 354 354 350 346 342 340 337
57 69 76 81 94 122 149 166 178 190 201 207 211 216 220 220 212 197 193 204 213 196 171 163 166 169 166 160 155 153 154 156 156 157 159 164 168 169 171 178 185 190 198 212 256 334 356 175 180 172 142 89 55 32 13 1 353 349 348 349 351 349 348 349 351 353 354 354 354 354 355 355 355 357 358 356 355 355 356 357 355 350 344 341 341
59 68 77 84 92 105 121 138 156 173 187 195 202 206 209 208 206 207 211 207 191 168 155 152 154 156 155 152 151 153 156 157 159 161 166 173 178 179 181 187 194 203 217 225 244 304 216 192 184 161 121 81 42 19 6 357 355 356 356 353 351 349 348 348 349 352 353 354 355 355 355 355 356 357 358 356 354 355 357 359 358 353 347 344 344
61 66 71 77 84 91 101 113 127 143 159 170 177 182 186 187 187 186 177 161 148 144 144 144 145 147 148 148 150 154 158 160 165 171 179 185 186 184 185 193 206 222 227 224 221 215 201 191 180 159 137 109 24 7 359 356 358 4 3 360 357 354 350 347 348 350 352 354 356 356 356 355 356 358 358 356 354 355 358 359 358 353 349 348 349
61 63 66 70 73 77 83 91 99 106 116 126 133 137 140 139 135 131 131 132 133 136 138 138 140 142 146 149 153 158 161 166 173 180 184 185 183 183 190 208 227 231 222 210 200 198 199 196 191 185 183 191 8 4 357 355 0 6 6 5 4 0 353 347 346 348 349 353 357 357 357 357 358 358 357 356 355 356 358 359 357 354 351 352 354
60 62 63 65 67 69 72 77 83 87 93 101 107 113 117 120 120 120 123 126 131 134 135 136 139 143 147 151 156 160 163 167 172 175 178 180 183 189 206 228 235 224 209 197 190 193 201 213 222 221 227 317 2 2 355 352 358 3 3 3 5 3 357 350 346 345 347 352 356 358 358 359 358 357 357 357 356 357 359 0 359 357 356 357 359
61 63 66 68 70 71 72 75 78 82 87 94 102 109 114 118 120 123 126 129 132 136 138 142 146 149 151 152 157 161 165 168 173 179 184 189 196 208 225 233 226 211 194 182 180 191 209 229 246 251 256 321 0 358 350 347 351 355 357 358 1 1 360 356 349 344 344 350 355 358 0 0 358 357 357 358 358 359 0 2 2 1 1 2 3
Height
1520 1521 1522 1523 1524 1525 1526 1528 1530 1533 1535 1536 1537 1538 1539 1540 1541 1542 1544 1545 1546 1547 1548 1549 1550 1551 1552 1552 1553 1554 1554 1555 1555 1556 1557 1558 1558 1559 1559 1559 1560 1560 1560 1561 1561 1562 1562 1562 1563 1563 1563 1564 1564 1565 1565 1565 1565 1565 1566 1566 1566 1566 1566 1567 1567 1567 1566 1566 1566 1565 1565 1564 1564 1563 1563 1562 1562 1561 1560 1559 1558 1557 1556 1555 1554
1518 1519 1520 1521 1522 1524 1526 1527 1529 1532 1534 1535 1536 1537 1538 1540 1541 1542 1543 1545 1546 1547 1548 1548 1549 1550 1551 1552 1553 1553 1554 1555 1555 1556 1557 1558 1558 1559 1559 1559 1560 1560 1561 1561 1562 1562 1562 1562 1563 1563 1563 1564 1564 1565 1565 1565 1565 1565 1566 1566 1566 1566 1566 1567 1567 1567 1566 1566 1565 1565 1564 1564 1564 1563 1562 1562 1561 1560 1559 1558 1557 1556 1555 1554 1553
1516 1517 1518 1519 1521 1523 1525 1527 1528 1530 1532 1534 1535 1536 1538 1539 1541 1542 1543 1544 1546 1546 1547 1548 1549 1550 1551 1552 1553 1553 1554 1554 1555 1556 1556 1557 1558 1558 1559 1559 1559 1560 1561 1561 1562 1562 1562 1562 1562 1563 1563 1563 1564 1564 1565 1565 1565 1565 1565 1565 1566 1566 1566 1566 1567 1567 1566 1566 1565 1565 1564 1564 1563 1562 1562 1561 1560 1560 1559 1558 1557 1556 1554 1553 1552
1515 1516 1517 1518 1520 1522 1524 1526 1527 1529 1531 1532 1534 1536 1537 1538 1540 1541 1542 1543 1545 1546 1546 1547 1548 1549 1550 1551 1552 1553 1554 1554 1555 1555 1556 1557 1557 1558 1558 1558 1559 1559 1560 1560 1561 1561 1562 1562 1562 1562 1563 1563 1563 1564 1564 1564 1565 1565 1565 1565 1565 1565 1566 1566 1566 1566 1566 1566 1565 1565 1564 1563 1563 1562 1561 1560 1559 1559 1558 1557 1556 1555 1554 1553 1551
1515 1516 1517 1518 1519 1521 1523 1525 1526 1527 1529 1531 1533 1535 1536 1538 1539 1540 1541 1542 1544 1545 1546 1547 1548 1549 1550 1551 1552 1553 1553 1554 1554 1555 1555 1556 1557 1557 1558 1558 1558 1558 1559 1559 1560 1560 1561 1561 1562 1562 1562 1563 1563 1563 1563 1564 1564 1564 1565 1565 1565 1565 1565 1565 1565 1565 1565 1565 1565 1564 1564 1563 1562 1561 1560 1560 1559 1558 1557 1556 1555 1554 1553 1552 1550
1515 1516 1516 1517 1518 1520 1521 1523 1524 1526 1527 1529 1531 1533 1535 1536 1538 1539 1540 1541 1542 1544 1545 1546 1547 1548 1549 1550 1551 1552 1552 1553 1553 1553 1554 1555 1555 1556 1557 1557 1558 1558 1558 1558 1559 1559 1560 1560 1561 1561 1562 1562 1562 1562 1562 1563 1563 1564 1564 1564 1564 1564 1564 1564 1564 1564 1564 1564 1564 1563 1563 1562 1561 1560 1559 1558 1558 1557 1556 1555 1554 1553 1552 1550 1549
1515 1516 1516 1517 1518 1519 1520 1522 1523 1525 1526 1528 1530 1531 1533 1535 1536 1538 1539 1540 1541 1542 1544 1545 1546 1547 1548 1549 1549 1550 1551 1551 1552 1552 1553 1553 1554 1554 1555 1556 1556 1557 1557 1557 1558 1558 1559 1559 1560 1560 1560 1560 1561 1561 1561 1561 1562 1562 1563 1563 1563 1563 1563 1563 1563 1563 1563 1563 1562 1562 1561 1561 1560 1559 1558 1557 1556 1555 1554 1553 1552 1551 1550 1548 1547
1515 1516 1516 1517 1518 1519 1519 1521 1522 1523 1525 1527 1528 1530 1531 1533 1534 1536 1537 1538 1540 1541 1542 1543 1544 1546 1547 1547 1547 1548 1549 1550 1550 1551 1552 1552 1553 1553 1554 1554 1555 1555 1556 1556 1557 1557 1557 1558 1558 1558 1559 1559 1559 1559 1559 1560 1560 1560 1561 1561 1561 1562 1562 1562 1562 1562 1562 1561 1561 1561 1560 1559 1558 1557 1556 1555 1555 1554 1552 1551 1550 1549 1547 1546 1544
1514 1515 1516 1517 1518 1518 1519 1520 1521 1522 1524 1526 1527 1528 1530 1531 1532 1534 1535 1537 1538 1539 1541 1541 1542 1543 1544 1545 1546 1547 1547 1548 1548 1549 1550 1551 1551 1552 1552 1553 1553 1553 1554 1554 1555 1555 1556 1556 1556 1556 1557 1557 1557 1557 1558 1559 1559 1559 1559 1560 1560 1560 1560 1560 1560 1560 1560 1560 1559 1559 1558 1558 1557 1556 1555 1554 1553 1552 1550 1549 1548 1547 1545 1544 1542
1514 1515 1516 1516 1517 1518 1519 1519 1520 1521 1523 1524 1526 1527 1528 1530 1531 1532 1533 1535 1536 1537 1538 1539 1540 1541 1542 1542 1544 1545 1546 1546 1546 1547 1548 1549 1549 1549 1550 1551 1551 1551 1551 1552 1552 1553 1553 1554 1554 1554 1555 1555 1555 1555 1556 1557 1557 1557 1558 1558 1558 1559 1559 1559 1559 1559 1558 1558 1558 1557 1557 1556 1555 1554 1553 1552 1551 1550 1548 1547 1546 1544 1543 1542 1540
1514 1514 1515 1516 1516 1517 1518 1519 1520 1521 1522 1523 1524 1525 1527 1527 1529 1530 1531 1532 1533 1534 1535 1536 1537 1538 1539 1540 1541 1542 1544 1544 1544 1545 1546 1546 1546 1547 1547 1548 1548 1549 1549 1549 1550 1551 1551 1551 1552 1552 1552 1553 1553 1554 1554 1555 1555 1556 1556 1556 1557 1557 1557 1557 1557 1557 1556 1556 1556 1555 1555 1554 1553 1552 1551 1549 1548 1547 1546 1544 1543 1541 1540 1538 1537
1514 1515 1515 1516 1516 1517 1518 1518 1519 1520 1521 1522 1523 1524 1524 1525 1526 1527 1528 1529 1530 1531 1533 1533 1534 1535 1536 1537 1538 1539 1541 1542 1542 1543 1543 1543 1543 1544 1545 1546 1546 1547 1547 1547 1548 1548 1548 1549 1549 1550 1550 1551 1551 1551 1552 1552 1553 1553 1554 1554 1555 1555 1555 1555 1555 1555 1554 1554 1553 1553 1552 1552 1551 1549 1549 1547 1546 1545 1544 1542 1540 1538 1537 1536 1534
1515 1515 1516 1516 1516 1517 1517 1518 1518 1519 1520 1521 1521 1522 1522 1523 1524 1525 1525 1526 1528 1530 1531 1531 1531 1532 1533 1534 1535 1536 1538 1539 1539 1540 1540 1540 1541 1542 1543 1544 1544 1545 1545 1545 1545 1546 1546 1546 1547 1547 1548 1548 1548 1549 1549 1549 1550 1551 1552 1552 1553 1553 1553 1553 1553 1553 1552 1552 1551 1551 1550 1549 1548 1547 1546 1545 1544 1542 1541 1540 1538 1536 1534 1532 1531
1515 1516 1516 1516 1517 1517 1517 1518 1518 1518 1519 1519 1520 1520 1521 1521 1522 1523 1523 1524 1526 1528 1528 1527 1528 1528 1529 1531 1532 1533 1535 1536 1537 1537 1538 1538 1539 1540 1541 1542 1542 1543 1543 1543 1543 1543 1544 1544 1545 1546 1546 1546 1546 1546 1547 1547 1548 1549 1550 1551 1551 1551 1551 1551 1551 1550 1550 1549 1549 1548 1547 1546 1545 1544 1543 1541 1540 1539 1537 1536 1535 1533 1530 1529 1527
1516 1516 1516 1517 1517 1517 1517 1517 1517 1518 1518 1518 1519 1519 1519 1520 1520 1521 1521 1522 1524 1525 1525 1525 1526 1526 1527 1529 1530 1531 1532 1533 1534 1535 1536 1537 1538 1539 1540 1540 1541 1541 1541 1541 1541 1542 1542 1543 1543 1544 1544 1544 1544 1544 1545 1545 1546 1547 1548 1549 1549 1549 1549 1549 1549 1548 1547 1546 1546 1545 1544 1544 1543 1541 1540 1538 1537 1536 1534 1532 1531 1528 1526 1524 1523
1516 1516 1516 1517 1517 1517 1518 1517 1517 1517 1517 1517 1518 1518 1518 1519 1519 1519 1520 1521 1522 1523 1523 1524 1525 1526 1527 1528 1528 1529 1530 1531 1533 1533 1534 1536 1537 1537 1538 1538 1539 1539 1540 1540 1540 1541 1541 1541 1541 1542 1542 1542 1542 1542 1543 1543 1544 1546 1547 1547 1547 1547 1547 1547 1546 1545 1545 1544 1543 1542 1541 1541 1540 1538 1537 1536 1534 1532 1530 1529 1527 1525 1523 1521 1519
1515 1515 1516 1516 1516 1517 1517 1517 1517 1516 1517 1517 1517 1517 1518 1518 1518 1519 1519 1520 1521 1522 1523 1524 1524 1525 1526 1527 1528 1528 1529 1530 1531 1532 1533 1534 1535 1536 1537 1537 1538 1538 1539 1539 1539 1539 1540 1540 1540 1540 1540 1540 1540 1541 1541 1542 1543 1544 1545 1546 1546 1546 1545 1545 1544 1543 1542 1542 1541 1540 1539 1538 1537 1536 1535 1533 1531 1530 1528 1526 1524 1522 1520 1518 1516
1514 1514 1514 1515 1515 1516 1516 1516 1515 1515 1516 1516 1516 1516 1517 1517 1517 1518 1519 1519 1520 1521 1522 1523 1524 1525 1525 1526 1527 1527 1528 1529 1530 1531 1532 1533 1534 1535 1535 1536 1537 1537 1537 1538 1538 1538 1538 1538 1538 1538 1538 1538 1539 1539 1540 1541 1542 1543 1544 1544 1544 1544 1543 1542 1542 1541 1540 1539 1539 1538 1537 1536 1535 1533 1532 1530 1529 1527 1525 1523 1522 1520 1518 1516 1514
1513 1513 1513 1514 1514 1514 1514 1514 1514 1514 1515 1516 1516 1515 1516 1516 1517 1517 1518 1519 1520 1520 1521 1522 1523 1523 1524 1524 1525 1526 1527 1528 1528 1529 1530 1531 1532 1533 1534 1534 1535 1535 1536 1536 1536 1536 1536 1536 1536 1536 1536 1537 1538 1538 1539 1540 1541 1542 1542 1542 1542 1541 1541 1540 1539 1538 1538 1537 1536 1535 1534 1533 1532 1530 1529 1528 1526 1524 1523 1521 1519 1517 1515 1513 1511
1511 1511 1511 1511 1512 1512 1512 1512 1512 1513 1514 1515 1514 1514 1515 1516 1516 1517 1517 1518 1519 1519 1520 1520 1521 1522 1522 1523 1524 1524 1525 1526 1527 1527 1528 1529 1530 1531 1532 1532 1533 1533 1533 1533 1533 1534 1534 1534 1534 1534 1535 1536 1536 1538 1538 1539 1540 1540 1540 1540 1540 1539 1538 1538 1537 1536 1535 1534 1533 1532 1531 1530 1529 1527 1526 1524 1523 1521 1519 1518 1516 1514 1512 1510 1508
1509 1509 1509 1509 1509 1510 1510 1510 1510 1511 1511 1512 1512 1513 1513 1514 1515 1515 1516 1516 1517 1518 1518 1519 1519 1520 1521 1522 1523 1523 1524 1524 1525 1526 1526 1527 1528 1528 1529 1530 1530 1531 1531 1531 1531 1532 1532 1532 1533 1533 1534 1535 1535 1536 1537 1538 1538 1538 1538 1538 1537 1537 1536 1535 1535 1534 1533 1532 1531 1530 1528 1527 1525 1524 1522 1521 1519 1518 1516 1514 1512 1511 1509 1507 1505
1506 1506 1506 1506 1506 1506 1507 1507 1508 1508 1508 1509 1509 1510 1511 1512 1512 1513 1513 1514 1515 1516 1516 1517 1517 1518 1519 1521 1521 1522 1523 1523 1523 1524 1524 1525 1526 1527 1527 1528 1528 1529 1529 1529 1530 1530 1530 1531 1532 1532 1533 1533 1534 1535 1536 1536 1536 1536 1536 1536 1535 1535 1534 1533 1532 1531 1530 1529 1528 1527 1525 1524 1522 1521 1519 1518 1516 1514 1513 1511 1509 1507 1505 1503 1501
1503 1502 1503 1503 1503 1503 1504 1504 1505 1505 1506 1507 1507 1508 1509 1509 1510 1510 1511 1512 1513 1514 1514 1515 1515 1516 1518 1519 1520 1521 1521 1521 1522 1522 1523 1524 1524 1525 1526 1526 1526 1527 1527 1528 1528 1529 1529 1529 1530 1531 1532 1532 1533 1533 1534 1534 1534 1534 1534 1533 1533 1532 1532 1531 1530 1529 1527 1526 1525 1524 1522 1521 1519 1517 1516 1514 1513 1511 1509 1507 1505 1503 1501 1499 1498
1499 1498 1499 1499 1500 1500 1500 1501 1501 1502 1503 1504 1504 1505 1506 1506 1507 1507 1508 1509 1510 1511 1512 1513 1513 1514 1515 1517 1518 1519 1520 1520 1521 1521 1522 1522 1523 1523 1524 1524 1525 1525 1526 1526 1527 1527 1527 1528 1528 1529 1530 1530 1531 1531 1532 1532 1532 1531 1531 1531 1530 1530 1529 1528 1527 1526 1525 1523 1522 1520 1519 1517 1515 1514 1512 1510 1509 1506 1504 1502 1500 1499 1497 1495 1494
1494 1494 1495 1495 1496 1496 1497 1497 1498 1498 1499 1500 1501 1502 1503 1503 1504 1505 1506 1506 1507 1508 1509 1510 1511 1512 1513 1515 1516 1517 1518 1519 1519 1520 1520 1521 1521 1522 1522 1523 1523 1523 1524 1525 1525 1526 1526 1526 1527 1527 1528 1529 1529 1529 1529 1529 1529 1529 1529 1529 1528 1527 1527 1526 1525 1523 1522 1520 1519 1517 1516 1514 1512 1510 1508 1506 1504 1502 1500 1498 1496 1495 1493 1491 1489
1489 1490 1490 1491 1491 1492 1493 1493 1494 1495 1495 1496 1498 1499 1500 1500 1501 1502 1503 1504 1504 1504 1505 1507 1508 1509 1511 1512 1514 1515 1516 1517 1518 1518 1519 1519 1520 1520 1521 1521 1521 1521 1522 1523 1524 1524 1524 1525 1525 1526 1526 1527 1527 1527 1527 1527 1527 1527 1527 1526 1526 1525 1524 1523 1522 1521 1519 1518 1516 1514 1512 1510 1508 1506 1504 1502 1500 1498 1496 1494 1492 1491 1490 1488 1486
1484 1484 1485 1486 1487 1487 1488 1489 1490 1491 1491 1492 1493 1495 1496 1497 1498 1499 1501 1502 1502 1501 1502 1503 1505 1507 1508 1510 1512 1513 1514 1515 1515 1516 1517 1517 1518 1518 1518 1519 1519 1519 1520 1521 1522 1522 1523 1523 1524 1524 1524 1525 1525 1525 1525 1525 1525 1525 1525 1524 1524 1523 1522 1521 1520 1519 1517 1516 1514 1512 1509 1507 1505 1503 1500 1499 1497 1496 1494 1492 1490 1488 1487 1485 1483
1479 1479 1479 1480 1481 1482 1483 1484 1485 1486 1487 1488 1489 1490 1492 1493 1494 1495 1498 1499 1499 1499 1499 1500 1501 1504 1506 1507 1508 1509 1510 1511 1513 1513 1514 1515 1515 1516 1516 1516 1517 1517 1518 1519 1520 1521 1521 1522 1522 1522 1523 1523 1523 1524 1524 1524 1524 1523 1523 1522 1521 1521 1520 1519 1518 1517 1515 1513 1512 1509 1507 1505 1503 1501 1499 1497 1495 1494 1492 1490 1488 1486 1485 1483 1481
1472 1472 1473 1474 1475 1476 1478 1479 1480 1482 1483 1484 1484 1485 1487 1488 1489 1491 1493 1495 1496 1496 1496 1497 1498 1501 1503 1504 1505 1506 1506 1508 1509 1510 1511 1512 1513 1513 1514 1514 1515 1516 1516 1517 1518 1519 1519 1520 1520 1521 1521 1522 1522 1522 1522 1522 1522 1521 1521 1521 1520 1519 1518 1518 1516 1515 1513 1511 1509 1507 1505 1503 1501 1499 1498 1496 1494 1492 1490 1488 1487 1485 1483 1481 1479
1466 1466 1467 1468 1469 1470 1472 1473 1475 1476 1477 1479 1480 1481 1482 1483 1484 1486 1488 1490 1492 1493 1494 1495 1495 1497 1499 1501 1502 1503 1503 1504 1505 1507 1508 1509 1510 1511 1511 1512 1513 1514 1515 1516 1517 1517 1518 1518 1519 1519 1520 1521 1521 1521 1521 1520 1520 1520 1520 1519 1519 1518 1517 1516 1515 1514 1512 1510 1507 1505 1502 1500 1499 1497 1496 1494 1492 1490 1488 1486 1485 1483 1481 1479 1477
1460 1460 1460 1461 1462 1464 1466 1467 1469 1471 1472 1474 1476 1477 1478 1479 1480 1481 1483 1485 1487 1489 1491 1492 1493 1494 1496 1498 1499 1500 1500 1501 1503 1504 1505 1506 1507 1508 1509 1510 1512 1513 1514 1515 1515 1516 1516 1517 1518 1518 1519 1519 1519 1519 1519 1519 1519 1519 1519 1518 1517 1517 1516 1515 1513 1512 1510 1508 1505 1503 1501 1499 1497 1495 1493 1491 1490 1488 1486 1484 1483 1481 1479 1478 1475
1456 1455 1455 1455 1456 1457 1459 1461 1463 1465 1467 1469 1471 1472 1474 1475 1476 1477 1479 1480 1482 1485 1487 1489 1490 1491 1493 1496 1497 1497 1498 1499 1500 1502 1503 1504 1505 1506 1507 1509 1510 1511 1513 1513 1514 1515 1515 1516 1517 1517 1517 1517 1518 1518 1518 1518 1518 1518 1518 1517 1516 1515 1514 1513 1512 1510 1508 1506 1504 1501 1499 1497 1495 1494 1492 1490 1488 1486 1484 1482 1481 1479 1477 1475 1473
1452 1450 1450 1450 1450 1451 1453 1455 1458 1460 1462 1464 1467 1468 1470 1471 1472 1475 1476 1477 1478 1481 1483 1485 1486 1488 1490 1492 1494 1495 1496 1496 1498 1499 1501 1502 1503 1504 1506 1507 1509 1510 1511 1512 1513 1514 1514 1515 1515 1516 1516 1516 1516 1516 1517 1517 1517 1517 1516 1516 1515 1514 1513 1512 1510 1508 1506 1504 1502 1500 1498 1496 1494 1492 1490 1488 1486 1484 1482 1480 1478 1477 1475 1473 1471
1447 1446 1445 1445 1446 1446 1447 1449 1452 1455 1458 1460 1462 1464 1466 1468 1469 1471 1473 1474 1475 1477 1479 1481 1483 1485 1487 1489 1491 1493 1493 1494 1496 1497 1498 1500 1501 1503 1504 1506 1507 1509 1510 1511 1512 1513 1513 1513 1514 1514 1514 1515 1515 1515 1515 1515 1516 1515 1515 1515 1514 1513 1512 1511 1509 1507 1505 1503 1501 1499 1497 1495 1493 1491 1488 1486 1484 1482 1480 1478 1476 1475 1473 1471 1469
1442 1441 1440 1441 1441 1441 1442 1444 1446 1450 1453 1456 1458 1461 1463 1465 1466 1468 1469 1471 1472 1475 1477 1478 1480 1483 1485 1487 1488 1490 1491 1493 1494 1495 1496 1498 1499 1501 1503 1504 1506 1507 1509 1510 1511 1511 1512 1512 1512 1513 1513 1513 1514 1514 1514 1514 1514 1514 1514 1514 1513 1512 1511 1509 1507 1505 1504 1502 1500 1498 1496 1493 1491 1489 1487 1484 1482 1480 1478 1476 1475 1473 1471 1469 1466
1437 1436 1436 1436 1436 1436 1437 1439 1441 1445 1448 1452 1455 1457 1459 1461 1463 1465 1467 1469 1470 1472 1474 1477 1479 1481 1483 1484 1486 1488 1490 1491 1492 1493 1494 1496 1498 1500 1502 1503 1505 1506 1508 1509 1510 1510 1510 1511 1511 1512 1512 1512 1513 1513 1513 1514 1514 1514 1513 1513 1512 1510 1509 1508 1506 1504 1502 1501 1499 1496 1494 1492 1489 1487 1484 1482 1480 1478 1476 1474 1472 1470 1468 1466 1464
1432 1431 1431 1431 1432 1433 1434 1435 1437 1441 1445 1448 1451 1454 1456 1458 1460 1463 1465 1467 1469 1470 1472 1475 1477 1478 1479 1481 1484 1486 1488 1489 1490 1491 1492 1494 1496 1499 1501 1503 1504 1505 1507 1508 1508 1509 1509 1510 1510 1511 1511 1512 1512 1512 1513 1513 1513 1513 1512 1511 1510 1509 1508 1506 1505 1503 1501 1499 1497 1494 1492 1490 1487 1485 1482 1480 1478 1476 1474 1472 1470 1468 1466 1464 1462
1426 1426 1426 1427 1429 1430 1431 1432 1434 1437 1441 1445 1448 1450 1453 1455 1457 1460 1462 1465 1467 1469 1470 1473 1475 1476 1478 1480 1481 1483 1485 1487 1488 1489 1490 1492 1495 1497 1500 1502 1503 1504 1505 1506 1507 1508 1509 1509 1509 1510 1510 1511 1511 1512 1512 1512 1512 1511 1511 1510 1509 1508 1507 1505 1504 1502 1500 1498 1495 1493 1491 1488 1485 1483 1480 1478 1476 1474 1472 1470 1468 1465 1463 1461 1460
1423 1423 1423 1425 1426 1428 1429 1430 1432 1435 1439 1443 1446 1448 1451 1453 1455 1457 1460 1462 1465 1467 1468 1470 1472 1474 1476 1478 1479 1481 1483 1484 1485 1486 1488 1490 1493 1496 1498 1500 1502 1503 1504 1506 1506 1507 1508 1508 1509 1509 1510 1510 1510 1511 1511 1511 1511 1510 1509 1508 1507 1507 1506 1504 1503 1501 1498 1496 1494 1492 1489 1487 1484 1481 1479 1476 1474 1472 1470 1468 1466 1464 1461 1459 1458
1423 1422 1422 1423 1424 1426 1428 1429 1430 1433 1437 1441 1444 1447 1450 1451 1453 1455 1457 1460 1462 1464 1466 1468 1470 1472 1474 1476 1477 1478 1480 1482 1483 1485 1487 1489 1493 1495 1497 1499 1501 1502 1504 1505 1506 1507 1507 1507 1508 1508 1509 1509 1509 1510 1510 1510 1509 1509 1508 1507 1506 1506 1505 1503 1502 1500 1497 1495 1493 1490 1488 1485 1482 1479 1477 1475 1472 1470 1468 1466 1464 1462 1460 1458 1456
1424 1423 1422 1423 1424 1425 1426 1427 1429 1433 1437 1441 1444 1447 1449 1450 1452 1454 1456 1458 1460 1462 1464 1466 1468 1470 1473 1475 1477 1478 1480 1481 1482 1484 1487 1490 1493 1495 1497 1499 1500 1502 1503 1505 1505 1506 1506 1507 1507 1507 1508 1508 1508 1509 1509 1508 1508 1507 1507 1506 1505 1505 1503 1502 1500 1498 1496 1494 1491 1489 1487 1484 1481 1478 1475 1473 1471 1469 1466 1464 1462 1460 1458 1456 1454
1425 1424 1424 1424 1424 1425 1426 1427 1430 1434 1438 1441 1444 1447 1448 1450 1451 1453 1455 1457 1459 1461 1462 1464 1465 1468 1470 1473 1476 1479 1481 1482 1484 1486 1488 1491 1493 1495 1497 1499 1500 1502 1503 1504 1505 1505 1505 1506 1506 1506 1506 1507 1507 1507 1507 1507 1507 1506 1506 1505 1504 1503 1502 1501 1499 1497 1495 1492 1490 1488 1485 1482 1480 1477 1474 1471 1469 1467 1465 1463 1461 1459 1456 1454 1452
1428 1426 1426 1425 1426 1427 1427 1429 1432 1435 1438 1441 1444 1446 1448 1449 1450 1451 1454 1456 1458 1460 1461 1462 1464 1467 1469 1471 1474 1478 1481 1483 1485 1487 1489 1491 1493 1495 1497 1499 1500 1501 1502 1503 1504 1504 1504 1505 1505 1505 1505 1506 1506 1506 1506 1506 1505 1505 1504 1504 1503 1502 1501 1500 1498 1496 1493 1491 1489 1486 1484 1481 1478 1475 1473 1470 1468 1466 1463 1461 1459 1457 1455 1453 1451
1431 1430 1429 1428 1429 1429 1430 1432 1435 1437 1440 1442 1444 1446 1448 1449 1450 1451 1454 1456 1458 1460 1462 1463 1466 1467 1469 1471 1474 1478 1481 1483 1485 1487 1489 1491 1494 1496 1497 1498 1499 1501 1502 1502 1503 1503 1504 1504 1504 1504 1505 1505 1505 1505 1505 1505 1504 1504 1504 1503 1502 1501 1500 1498 1497 1494 1492 1490 1487 1485 1482 1480 1477 1475 1472 1469 1467 1464 1462 1460 1458 1456 1454 1452 1450
1434 1433 1432 1432 1432 1433 1434 1436 1437 1439 1441 1443 1445 1446 1448 1450 1451 1452 1454 1456 1458 1460 1462 1464 1466 1468 1470 1472 1475 1478 1481 1483 1486 1487 1490 1492 1494 1496 1497 1498 1499 1500 1501 1502 1502 1503 1503 1503 1503 1504 1504 1504 1504 1504 1504 1504 1503 1503 1502 1502 1501 1500 1499 1497 1495 1493 1491 1489 1486 1484 1481 1479 1476 1474 1471 1469 1466 1463 1461 1459 1457 1455 1453 1451 1449
1437 1436 1436 1435 1435 1436 1437 1439 1440 1442 1443 1444 1446 1447 1449 1451 1452 1453 1455 1457 1458 1460 1462 1464 1466 1468 1471 1473 1476 1479 1481 1484 1486 1488 1490 1492 1494 1496 1497 1498 1499 1500 1501 1501 1502 1502 1502 1502 1503 1503 1503 1503 1503 1503 1503 1503 1503 1502 1501 1500 1499 1498 1497 1496 1494 1493 1490 1488 1486 1483 1480 1478 1476 1473 1471 1468 1466 1463 1461 1459 1457 1455 1453 1451 1449
1441 1440 1439 1439 1439 1439 1440 1441 1442 1443 1444 1445 1447 1448 1450 1452 1453 1454 1456 1457 1459 1460 1462 1465 1467 1470 1472 1475 1477 1480 1483 1485 1487 1489 1491 1493 1494 1496 1496 1497 1498 1499 1500 1500 1501 1501 1502 1502 1502 1502 1502 1503 1503 1503 1503 1503 1502 1501 1501 1500 1498 1497 1496 1495 1494 1492 1490 1487 1485 1483 1480 1478 1475 1473 1471 1468 1466 1463 1461 1458 1456 1455 1453 1450 1448
1445 1444 1443 1442 1442 1442 1443 1443 1444 1445 1445 1447 1448 1449 1451 1453 1454 1455 1456 1458 1460 1462 1464 1466 1469 1472 1474 1477 1479 1482 1484 1486 1487 1489 1491 1493 1494 1495 1496 1497 1498 1499 1499 1500 1500 1501 1501 1501 1501 1501 1502 1502 1502 1502 1502 1502 1501 1501 1500 1499 1498 1496 1495 1494 1493 1491 1489 1487 1485 1482 1480 1477 1475 1473 1471 1468 1466 1463 1461 1458 1456 1455 1453 1450 1448
1451 1449 1448 1447 1447 1446 1446 1446 1447 1447 1448 1449 1450 1451 1453 1454 1456 1457 1458 1460 1462 1464 1466 1469 1471 1474 1477 1479 1481 1483 1484 1486 1488 1489 1491 1492 1494 1495 1496 1497 1497 1498 1499 1499 1499 1500 1500 1500 1500 1501 1501 1501 1502 1502 1502 1501 1501 1500 1499 1498 1497 1496 1494 1493 1492 1490 1489 1487 1485 1482 1480 1478 1475 1473 1471 1469 1466 1464 1461 1459 1457 1454 1453 1451 1449
1455 1454 1453 1452 1452 1451 1451 1451 1451 1451 1452 1452 1453 1454 1456 1457 1459 1460 1462 1464 1466 1468 1470 1471 1474 1476 1479 1480 1482 1484 1485 1486 1488 1489 1491 1492 1493 1494 1495 1496 1496 1497 1498 1498 1499 1499 1499 1499 1500 1500 1501 1501 1501 1501 1501 1501 1500 1500 1499 1498 1497 1495 1494 1492 1491 1490 1488 1486 1484 1482 1480 1478 1476 1473 1471 1469 1467 1464 1461 1459 1457 1455 1453 1451 1449
1460 1459 1458 1457 1457 1456 1456 1456 1456 1456 1457 1457 1458 1459 1460 1462 1463 1464 1466 1467 1469 1471 1473 1474 1476 1478 1480 1481 1483 1484 1485 1487 1488 1490 1491 1492 1493 1494 1494 1495 1496 1496 1497 1497 1498 1498 1499 1499 1499 1500 1500 1500 1500 1500 1500 1500 1500 1499 1498 1497 1496 1495 1493 1492 1490 1489 1488 1486 1484 1482 1480 1478 1476 1474 1472 1469 1467 1464 1462 1459 1457 1455 1453 1451 1449